This demonstration page uses our WeatherBlox Daily Observations layout. Learn more.

Left ArrowRight Arrow

Hourly Observations for May 19, 2022

Temp ( °F °C ) Dew Point ( °F °C ) Humidity (%) Winds ( mph kmh ) Pressure ( in mb ) Visibility ( mi km ) Precip ( " mm )
12:56 am 00:56 Clear 72 22.2 53 11.7 52 52 SSW 13 20 29.69 1005 10 16 0.00 0.00
1:56 am 01:56 Clear 71 21.7 54 12.2 55 55 SSW 14 22 29.66 1004 10 16 0.00 0.00
2:56 am 02:56 Clear 68 20 55 12.8 63 63 SW 7 11 29.62 1003 10 16 0.00 0.00
3:56 am 03:56 Clear 65 18.3 55 12.8 70 70 S 9 15 29.60 1003 10 16 0.00 0.00
4:56 am 04:56 Clear 64 17.8 55 12.8 73 73 SSW 7 11 29.60 1003 10 16 0.00 0.00
5:56 am 05:56 Clear 63 17.2 54 12.2 73 73 SSW 12 19 29.57 1002 10 16 0.00 0.00
6:56 am 06:56 Sunny 63 17.2 51 10.6 65 65 SW 14 22 29.56 1001 10 16 0.00 0.00
7:56 am 07:56 Sunny 65 18.3 50 10 59 59 SW 16 26 29.53 1000 10 16 0.00 0.00
8:56 am 08:56 Sunny 72 22.2 51 10.6 48 48 WSW 21 33 29.51 999 8 13 0.00 0.00
9:56 am 09:56 Sunny 76 24.4 51 10.6 42 42 SW 22 35 29.49 999 10 16 0.00 0.00
10:56 am 10:56 Sunny 78 25.6 52 11.1 40 40 SW 24 39 29.46 998 10 16 0.00 0.00
11:56 am 11:56 Sunny 83 28.3 53 11.7 36 36 SW 20 31 29.43 997 10 16 0.00 0.00
12:56 pm 12:56 Sunny 87 30.6 53 11.7 31 31 SSW 22 35 29.39 995 10 16 0.00 0.00
1:56 pm 13:56 Sunny 91 32.8 50 10 25 25 SW 16 26 29.35 994 10 16 0.00 0.00
2:56 pm 14:56 Sunny 92 33.3 48 8.9 22 22 WSW 16 26 29.32 993 10 16 0.00 0.00
3:56 pm 15:56 Sunny 92 33.3 47 8.3 21 21 S 15 24 29.28 992 10 16 0.00 0.00
4:56 pm 16:56 Sunny 91 32.8 48 8.9 23 23 SSW 14 22 29.26 991 10 16 0.00 0.00
5:56 pm 17:56 Sunny 89 31.7 53 11.7 29 29 S 16 26 29.24 990 10 16 0.00 0.00
6:56 pm 18:56 Sunny 87 30.6 55 12.8 34 34 S 10 17 29.23 990 10 16 0.00 0.00
7:56 pm 19:56 Sunny 84 28.9 57 13.9 40 40 SSW 7 11 29.23 990 10 16 0.00 0.00
8:33 pm 20:33 Mostly Sunny 72 22 52 11 50 50 N 32 52 29.24 990 8 13 0.00 0.00
8:56 pm 20:56 Clear 67 19.4 49 9.4 53 53 N 32 52 29.29 992 10 16 0.00 0.00
9:56 pm 21:56 Clear 58 14.4 43 6.1 58 58 N 29 46 29.36 994 10 16 0.00 0.00
10:56 pm 22:56 Clear 55 12.8 39 3.9 55 55 N 30 48 29.45 997 10 16 0.00 0.00
11:56 pm 23:56 Clear 52 11.1 36 2.2 55 55 N 29 46 29.46 998 10 16 0.00 0.00

Powered by AerisWeather